NOAA 16 DEB

Satellite information

Favourite Embed

Satellite Type and Status

DEBRISIN ORBIT

Key statistics

Satellite NOAA 16 DEB at a glance.

Uptime

9164

Days in orbit

Revolutions

≈ 14.5

Per day

Orbit

SSO

Sun Synchronous Orbit

Inclination

99.0

Latest

Satellite identification and parameters

Extended collection of information and parameters for NOAA 16 DEB.

Object identification

Identified? True

Debris? True

Object name: NOAA 16 DEB

International designator: 2000-055SZ

Object number (NORAD): 42405

Object ID (CCSDS): 42405

Country: UNITED STATES OF AMERICA (US)

Current information (Y/N): Y

RCS size: SMALL

Orbital parameters

Period: 99.339 minutes

Inclination: 99.0346 deg

SMA: 7105.139 km

Apoapsis: 745.381 km

Periapsis: 708.627 km

RAAN: 164.7792 deg

Eccentricy: 0.0025864

Argument of periapsis: 103.2585 deg

Mean anomaly: 257.1493 deg

Mean motion: 14.49585716 rev/day

Mean motion (dot): 0.00010617 rev/day2

B* drag term: 0.0027628 1/REarth

Two-line elements (TLE)

Creation date: Oct. 23, 2025, 10:16 p.m.

Reference frame: TEME

Reference center: EARTH

Epoch: Oct. 23, 2025, 9:29 a.m. UTC

TLE line 0: 0 NOAA 16 DEB

TLE line 1: 1 42405U 00055SZ 25296.39560992 .00010617 00000-0 27628-2 0 9994

TLE line 2: 2 42405 99.0346 164.7792 0025864 103.2585 257.1493 14.49585716499466

Live tracking on map

Real-time ground track for satellite NOAA 16 DEB.

In-orbit conjunctions

A list of the most updated potential collisions computed for object NOAA 16 DEB.

Target Orbit TCA Probability of collision Miss distance Type
ARIANE 1 DEB SSO 2025-07-21 05:31:23 0.0001061196 259.0 (m) DEBRIS
TAURUS R/B SSO 2025-07-17 19:39:30 0.0005157804 214.0 (m) ROCKET BODY
STEX LEO 2025-06-20 12:16:34 0.0005286185 900.0 (m) PAYLOAD
CZ-6A DEB LEO 2024-12-16 23:49:19 0.0003028066 942.0 (m) DEBRIS
TIROS 4 LEO 2024-12-15 08:59:34 0.0002424227 607.0 (m) PAYLOAD

Associated space launch

The NOAA K, L and M POES satellites begin the fifth generation of improved environmental monitoring in support of NOAA missions. The instrument payload has significant improvements and additions/deletions. The instrument changes have effected the spacecraft subsystems and data formats.

NOAA 16 DEB was lifted into orbit during the mission ‘Titan II SLV | NOAA 16’, on board a Titan II SLV space rocket.

The launch took place on Sept. 21, 2000, 10:22 a.m. from Space Launch Complex 4W.

For more information about the launch, click the button.

Launch to space Titan II SLV | NOAA 16
Titan II SLV | NOAA 16

Agency: N/A

Status: Launch Successful

Launch date: Sept. 21, 2000, 10:22 a.m. UTC

Rocket: Titan II SLV

Launch pad: Space Launch Complex 4W

Location: Vandenberg SFB, CA, USA

...

Latest news about this satellite

There are no fresh news available about this satellite. Check back as we update our databases every day.


Newsletter sign-up

Weekly statistics, charts and insights to help you stay on top of the space industry.